Flag for Canada Weather past 2 weeks in Igloolik, Nunavut Territory, Canada

Now
-17 °F

Light snow. Mostly cloudy.


Feels Like: -41 °F
Forecast: -12 / 1 °F
Wind: 16 mph from North

Location: Hall Beach

Current Time: Mar 28, 2015 at 12:07:24 AM

Latest Report: Mar 27, 2015 at 11:00 PM


Visibility: 1 mi

Pressure: 29.55 "Hg

Humidity: 76%

Dew point: -22 °F

Location of IgloolikLocation

Historic Weather in Igloolik — Graph

°F

Igloolik temperature yesterday

Maximum temperature yesterday: -2 °F (at 5:46 PM)
Minimum temperature yesterday: -17 °F (at 12:01 AM)
Average temperature yesterday: -11 °F

Past Weeks' High & Low Weather Summary

 TemperatureHumidityPressure
High19 °F (Mar 16, 2:00 PM)100% (Mar 16, 7:00 PM)30.09 "Hg (Mar 16, 7:00 PM)
Low-31 °F (Mar 23, 5:00 AM)67% (Mar 13, 12:00 AM)28.93 "Hg (Mar 16, 1:00 PM)
Average-11 °F80%29.70 "Hg
* Reported Mar 12 10:00 PM — Mar 27 10:00 PM, Igloolik, Weather by CustomWeather, © 2015

Note: Actual official high and low records may vary slightly from our data, if they occured in-between our weather recording intervals... More about our weather records

Advertising

Igloolik weather history for previous 24 hours

 ConditionsComfort  
Time TempWeatherWind HumidityBarometerVisibility
10:00 PM
Fri, Mar 27
-15 °FLight snow. Mostly cloudy.20 mph76%29.54 "Hg1 mi
9:01 PM-6 °FLight snow. Broken clouds.14 mph77%29.52 "Hg2 mi
8:00 PM-6 °FLight snow. Ice fog.14 mph77%29.50 "Hg3 mi
7:00 PM-4 °FLight snow. Ice fog.15 mph71%29.49 "Hg2 mi
6:00 PM-4 °FLight snow. Ice fog.17 mph77%29.47 "Hg1 mi
5:46 PM-2 °FLight snow. Ice fog.12 mph71%29.47 "Hg2 mi
5:00 PM-8 °FLight snow. Ice fog.7 mph84%29.46 "Hg1 mi
4:00 PM-9 °FLight snow. Partly sunny.10 mph77%29.45 "Hg4 mi
3:00 PM-9 °FSnow flurries. Ice fog.12 mph77%29.45 "Hg6 mi
2:00 PM-9 °FBroken clouds.14 mph70%29.45 "Hg9 mi
1:00 PM-11 °FBroken clouds.10 mph76%29.45 "Hg12 mi
12:00 PM-13 °FMore clouds than sun.9 mph69%29.46 "Hg10 mi
11:00 AM-15 °FIce fog.8 mph76%29.47 "Hg2 mi
10:00 AM-13 °FLight snow. Mostly cloudy.9 mph76%29.47 "Hg1 mi
9:00 AM-15 °FLight snow. Partly sunny.9 mph83%29.49 "Hg3 mi
8:00 AM-17 °FLight snow. Partly sunny.10 mph83%29.50 "Hg7 mi
7:47 AM-15 °FLight snow. Mostly cloudy.6 mph76%29.51 "Hg6 mi
7:00 AM-13 °FLight snow. Overcast.10 mph83%29.51 "Hg2 mi
6:56 AM-11 °FLight snow. Overcast.12 mph76%29.51 "Hg2 mi
6:00 AM-11 °FLight snow. Overcast.9 mph84%29.53 "Hg1 mi
5:00 AM-13 °FLight snow. Overcast.10 mph83%29.55 "Hg3 mi
4:57 AM-13 °FLight snow. Overcast.10 mph83%29.55 "Hg3 mi
4:01 AM-13 °FLight snow. Overcast.6 mph83%29.57 "Hg2 mi
3:00 AM-13 °FLight snow. Overcast.7 mph76%29.59 "Hg2 mi
2:50 AM-13 °FLight snow. Overcast.14 mph76%29.58 "Hg2 mi
2:03 AM-17 °FLight snow. Mostly cloudy.10 mph83%29.60 "Hg7 mi
1:03 AM-17 °FLight snow. Passing clouds.7 mph83%29.63 "Hg6 mi
12:01 AM-17 °FLight snow. Passing clouds.10 mph83%29.64 "Hg2 mi
Weather by CustomWeather, © 2015

See weather overviewHow to use our weather pages